"Pseudo-MPEC" for P10ON8N

Created 2019 Jun 15 19:08:25 UT using Find_Orb

Click here for an explanation of pseudo-MPECs

 
 Astrometry: 
     P10ON8N  C2019 05 02^PlErBqgL17c.VkKsnpvDawe9p=Astrometry0wU`C2fLyl]jUEFF51
     P10ON8N  C2019 05 02KN:MTe$xLUeL5OIj5lD2JUX-F3-F4Xt(_Nmc's?E8kZgn$W:H3MsF51
     P10ON8N  C2019 05 02h+Z4sg5-y/i_87H?0A#fRDZVUuXh+Wa@EZaZAajeF\HUfjsiV%hkF51
     P10ON8N  C2019 05 025C@G2BSC]Mhr4ImumXu)4D^!h1DD625K0/rB+%?i,-aA0.pWgF`!F51
     P10ON8N  C2019 05 25jxVX/UVyAF$QUwMaVl*cTk^S.v@T6vx5,VDagD]3H4By)0.3MXe[F52
     P10ON8N  C2019 05 252sW,(m\\i7'*$%gredacted;k'V3[r=EZ*rw=72Odi5l6rss;dTyF52
     P10ON8N  C2019 05 25B3g3nwFOI=N)Z?7lH5]nUASJ_-J'tk:hh;r72th!/-8!Unkm=q8JF52
     P10ON8N  C2019 05 25Mx1w%+htM0iE!UuD!*+m`;bQ.%H0qL]o]4OhV#;@F;A!;qypU_coF52
     P10ON8N  C2019 05 31K.*rN0K1xSU#IO#q%YBX)w=lGqrGYJRXx*0:*=Ibfye*JD=lWFCNF51
     P10ON8N  C2019 05 31mjFe8%Ab1:M*$hhBk*.jpm:n0`K1*$tif%0(k0Cnclick!`7CRA,F51
     P10ON8N  C2019 05 31v7yk`cQet[?x0?gPyRYjVb1WIHUUia+[:vu#N`xcvsEJDp]h29QwF51
     P10ON8N  C2019 05 31Jy%/C@:X4kS8?9j(?@Ve^c.cRuV)L]L`FI:';+Z-Jsw-9=cXVCu,F51
     P10ON8N  C2019 06 01M90fBGl(G;herecbBXmerOYB3BC?PbKW!AhAcigF7(cy$AFZ`r0VF52
     P10ON8N  C2019 06 01QRiM-3l]uq:P8\LVL9V=v?p`[ikVtwE*2nAa@682rBxWx;S=e.W\F52
     P10ON8N  C2019 06 01iWK4gE1gGpypkaj'SVTKyR(wH6o3DLIg^t!%tflu6lE(-5c:l=ekF52
     P10ON8N  C2019 06 01pGBr77_5/VV]1[WxN-htRp[BZO4QnYG;Us-GYBeBSA%d]b*D+$vUF52
     P10ON8N  C2019 06 01_ih,A\?BRO_vO[aq4\Py^g;i1FG.VaEOgf2,/d[%#for1T8r%MTUF51
     P10ON8N  C2019 06 01mCA6.B7Rxww(d:JMX`,5q`MD?TRNZEqV5RMv*KM'-7y!LYVXHMrvF51
     P10ON8N  C2019 06 01KkP$@eIkA9KsfWkO8yA8]d49w\@I2lo=p5(sZI2,vR.SD7kCX)C;F51
     P10ON8N  C2019 06 01H1.EnOHu=Ck,%gN+sJ][#'ro$QRF3Uy'^HbY?_$Lev9m'fe!uFsDF51
     P10ON8N  C2019 06 07K$w'KQ:ZQBS^QrCUxb+7V3WNRXIR,HW0y^5Pyo'ugZYSVMQsYCOFF51
     P10ON8N  C2019 06 07T#xg*MNb]MFMXyv_Nd@a\M0XkCU@idwAQWKX,g;3hBkg?+]%#?,uF51
     P10ON8N  C2019 06 07)dfLt`o^7jioGU]BK9hmXs/;xf4*H(jvC:4Z*#OF$^^u'/4oFhe;F51
     P10ON8N |C2019 06 08@RO$nmP8#MR7b\o7]MPAW*6L-6nrQ4$[lLNrWfu*rglU\^l/432E807
     P10ON8N |C2019 06 08=q$m?QxSUYy\.q9NGw!4DVJ\HYJ5explanationEo,@1o_bGlq'k807
     P10ON8N |C2019 06 08SiFqcxrQB(!X*5(?ZQ6qk_0S-$hm2WcXNMV!$R)Zd4oF-)wg@HXY807

Station data:
(807) Cerro Tololo Observatory, La Serena  (S30.169136 W70.805900)  Chile.
(F51) Pan-STARRS 1, Haleakala  (N20.707235 W156.255910)  US/Hawaii.
   Observers N. Primak, A. Schultz, S. Watters, J. Thiel, T. Goggia. Measurer
   PS1 Science Consortium. 1.8-m Ritchey-Chrétien + CCD.
(F52) Pan-STARRS 2, Haleakala  (N20.707384 W156.255910)  US/Hawaii. 1.8-m
   Ritchey-Chrétien + CCD.

Orbital elements:  P10ON8N
   Perihelion 2020 Jan 29.487079 +/- 0.0663 TT = 11:41:23 (JD 2458877.987079)
Epoch 2019 Jun  8.0 TT = JDT 2458642.5   Earth MOID: 0.5952   AutoNEOCP
M 287.17375410 +/- 0.015            (J2000 ecliptic)
n   0.30925792 +/- 4.69e-5          Peri.  159.48412 +/- 0.009
a   2.16565275 +/- 0.000219         Node   190.13287 +/- 0.011
e   0.2609911 +/- 0.000135          Incl.    5.02628 +/- 0.0014
P   3.19                   H 19.6   G  0.15   U  6.1  
q 1.60043651 +/- 0.000139    Q 2.73086899 +/- 0.000565
From 26 observations 2019 May 2-June 8; mean residual 0".22
Residuals in arcseconds: 
190502 F51  .48-  .37+    190531 F51  .06+  .03+    190601 F51  .21-  .10-    
190502 F51  .45+  .02-    190531 F51  .11+  .00     190601 F51  .13-  .18+    
190502 F51  .08+  .11-    190531 F51  .03-  .15-    190607 F51  .13-  .18+    
190502 F51  .05-  .08-    190601 F52  .21-  .12-    190607 F51  .03+  .16-    
190525 F52  .01+  .40-    190601 F52  .17-  .50+    190607 F51  .38+  .10-    
190525 F52  .06-  .02-    190601 F52  .06+  .18+    190608 807  .01-  .02+    
190525 F52  .13-  .01+    190601 F52  .13-  .59+    190608 807  .08-  .09-    
190525 F52  .50+  .50-    190601 F51  .07+  .07+    190608 807  .15+  .10-    
190531 F51  .06-  .11-    190601 F51  .11-  .07-    

Ephemerides (geocentric):
Date (UTC) HH   RA              Dec         delta   r     elong  mag " sig PA
---- -- -- --  -------------   -----------  ------ ------ -----  --- ---- ---
2019 06 15 19  15 41 10.318   -11 37 48.28  1.1749 2.1196 150.7 22.4 .461 152
2019 06 15 20  15 41 08.166   -11 37 41.04  1.1750 2.1194 150.6 22.4 .464 152
2019 06 15 21  15 41 06.016   -11 37 33.81  1.1751 2.1193 150.6 22.4 .467 152
2019 06 15 22  15 41 03.870   -11 37 26.60  1.1752 2.1192 150.5 22.4 .470 151
2019 06 15 23  15 41 01.726   -11 37 19.41  1.1753 2.1190 150.5 22.4 .473 151
2019 06 16 00  15 40 59.584   -11 37 12.24  1.1754 2.1189 150.4 22.4 .475 151
2019 06 16 01  15 40 57.445   -11 37 05.09  1.1755 2.1188 150.4 22.4 .478 151
2019 06 16 02  15 40 55.309   -11 36 57.95  1.1756 2.1187 150.3 22.4 .481 151
2019 06 16 03  15 40 53.176   -11 36 50.83  1.1756 2.1185 150.3 22.4 .484 151
2019 06 16 04  15 40 51.046   -11 36 43.73  1.1757 2.1184 150.2 22.4 .487 151
2019 06 16 05  15 40 48.918   -11 36 36.64  1.1758 2.1183 150.2 22.4 .490 151
2019 06 16 06  15 40 46.793   -11 36 29.58  1.1759 2.1181 150.1 22.4 .493 151
2019 06 16 07  15 40 44.670   -11 36 22.53  1.1760 2.1180 150.1 22.4 .495 151
2019 06 16 08  15 40 42.551   -11 36 15.50  1.1761 2.1179 150.0 22.4 .498 150
2019 06 16 09  15 40 40.434   -11 36 08.48  1.1762 2.1177 150.0 22.4 .501 150
2019 06 16 10  15 40 38.320   -11 36 01.49  1.1763 2.1176 149.9 22.4 .504 150
2019 06 16 11  15 40 36.208   -11 35 54.51  1.1764 2.1175 149.9 22.4 .507 150
2019 06 16 12  15 40 34.099   -11 35 47.55  1.1766 2.1174 149.9 22.4 .510 150
2019 06 16 13  15 40 31.993   -11 35 40.61  1.1767 2.1172 149.8 22.4 .513 150
2019 06 16 14  15 40 29.890   -11 35 33.68  1.1768 2.1171 149.8 22.4 .516 150
2019 06 16 15  15 40 27.790   -11 35 26.78  1.1769 2.1170 149.7 22.4 .519 150
2019 06 16 16  15 40 25.692   -11 35 19.89  1.1770 2.1168 149.7 22.4 .522 150
2019 06 16 17  15 40 23.597   -11 35 13.02  1.1771 2.1167 149.6 22.4 .525 150
2019 06 16 18  15 40 21.505   -11 35 06.17  1.1772 2.1166 149.6 22.4 .528 149
2019 06 16 19  15 40 19.416   -11 34 59.33  1.1773 2.1165 149.5 22.4 .531 149
2019 06 16 20  15 40 17.329   -11 34 52.51  1.1774 2.1163 149.5 22.4 .534 149
2019 06 16 21  15 40 15.245   -11 34 45.71  1.1775 2.1162 149.4 22.4 .537 149
2019 06 16 22  15 40 13.164   -11 34 38.93  1.1776 2.1161 149.4 22.4 .540 149
2019 06 16 23  15 40 11.086   -11 34 32.17  1.1777 2.1159 149.3 22.4 .543 149
2019 06 17 00  15 40 09.011   -11 34 25.42  1.1778 2.1158 149.3 22.4 .546 149
2019 06 17 01  15 40 06.938   -11 34 18.69  1.1779 2.1157 149.2 22.4 .549 149
2019 06 17 02  15 40 04.868   -11 34 11.98  1.1780 2.1155 149.2 22.4 .552 149
2019 06 17 03  15 40 02.801   -11 34 05.29  1.1781 2.1154 149.2 22.4 .555 149
2019 06 17 04  15 40 00.737   -11 33 58.62  1.1782 2.1153 149.1 22.4 .558 148
2019 06 17 05  15 39 58.676   -11 33 51.96  1.1783 2.1152 149.1 22.4 .561 148
2019 06 17 06  15 39 56.617   -11 33 45.32  1.1784 2.1150 149.0 22.4 .565 148
2019 06 17 07  15 39 54.561   -11 33 38.70  1.1785 2.1149 149.0 22.4 .568 148
2019 06 17 08  15 39 52.508   -11 33 32.10  1.1787 2.1148 148.9 22.4 .571 148
2019 06 17 09  15 39 50.458   -11 33 25.52  1.1788 2.1146 148.9 22.4 .574 148
2019 06 17 10  15 39 48.411   -11 33 18.95  1.1789 2.1145 148.8 22.4 .577 148
2019 06 17 11  15 39 46.366   -11 33 12.40  1.1790 2.1144 148.8 22.4 .580 148
2019 06 17 12  15 39 44.325   -11 33 05.87  1.1791 2.1142 148.7 22.4 .583 148
2019 06 17 13  15 39 42.286   -11 32 59.36  1.1792 2.1141 148.7 22.4 .587 148
2019 06 17 14  15 39 40.250   -11 32 52.87  1.1793 2.1140 148.6 22.4 .590 148
2019 06 17 15  15 39 38.217   -11 32 46.39  1.1794 2.1139 148.6 22.4 .593 147
2019 06 17 16  15 39 36.187   -11 32 39.93  1.1795 2.1137 148.5 22.4 .596 147
2019 06 17 17  15 39 34.159   -11 32 33.49  1.1796 2.1136 148.5 22.4 .599 147
2019 06 17 18  15 39 32.135   -11 32 27.07  1.1798 2.1135 148.5 22.4 .603 147